Radiation Dose at Monitoring Post of Fukushima Daini Nuclear Power Station
Date,Time,MP-1(microSv/h),MP-2(microSv/h),MP-3(microSv/h),MP-4(microSv/h),MP-5(microSv/h),MP-6(microSv/h),MP-7(microSv/h),Wind Direction,Wind Velocity(m/s),Rain
2024/06/16,00:00,0.148,0.131,0.215,0.202,0.208,0.116,0.075,south,4.4,No
2024/06/16,00:10,0.148,0.133,0.217,0.201,0.207,0.117,0.075,south,4.2,No
2024/06/16,00:20,0.149,0.132,0.216,0.201,0.209,0.117,0.076,south,3.4,No
2024/06/16,00:30,0.149,0.133,0.216,0.204,0.208,0.117,0.076,south,3.4,No
2024/06/16,00:40,0.148,0.133,0.217,0.200,0.207,0.117,0.075,south,3.0,No
2024/06/16,00:50,0.149,0.133,0.215,0.202,0.208,0.117,0.076,south,1.5,No
2024/06/16,01:00,0.149,0.132,0.217,0.202,0.207,0.116,0.076,south,2.2,No
2024/06/16,01:10,0.150,0.131,0.216,0.201,0.208,0.116,0.076,south,3.7,No
2024/06/16,01:20,0.149,0.134,0.217,0.203,0.209,0.116,0.076,south,3.6,No
2024/06/16,01:30,0.148,0.131,0.215,0.201,0.206,0.117,0.076,south,3.0,No
2024/06/16,01:40,0.151,0.133,0.216,0.203,0.209,0.116,0.076,south,2.4,No
2024/06/16,01:50,0.148,0.132,0.218,0.203,0.206,0.116,0.076,south,3.0,No
2024/06/16,02:00,0.150,0.133,0.216,0.202,0.208,0.117,0.076,south,2.4,No
2024/06/16,02:10,0.149,0.132,0.218,0.204,0.209,0.117,0.076,south,2.7,No
2024/06/16,02:20,0.149,0.133,0.215,0.200,0.207,0.117,0.076,south,2.0,No
2024/06/16,02:30,0.150,0.134,0.217,0.203,0.209,0.118,0.076,south,1.8,No
2024/06/16,02:40,0.150,0.133,0.216,0.202,0.207,0.117,0.076,south-southeast,1.8,No
2024/06/16,02:50,0.150,0.133,0.217,0.202,0.209,0.118,0.076,south,2.2,No
2024/06/16,03:00,0.150,0.132,0.216,0.203,0.208,0.117,0.076,south-southwest,1.7,No
2024/06/16,03:10,0.149,0.133,0.216,0.202,0.207,0.118,0.076,south-southwest,1.2,No
2024/06/16,03:20,0.151,0.133,0.217,0.203,0.210,0.117,0.076,south,1.3,No
2024/06/16,03:30,0.150,0.133,0.217,0.202,0.208,0.117,0.077,south,1.2,Yes
2024/06/16,03:40,0.151,0.135,0.219,0.204,0.210,0.118,0.077,south-southeast,1.4,Yes
2024/06/16,03:50,0.152,0.135,0.219,0.204,0.210,0.118,0.077,southeast,0.9,Yes
2024/06/16,04:00,0.152,0.136,0.221,0.205,0.210,0.121,0.079,south-southeast,1.0,Yes
2024/06/16,04:10,0.153,0.135,0.219,0.204,0.211,0.120,0.079,northwest,1.3,Yes
2024/06/16,04:20,0.151,0.135,0.220,0.205,0.210,0.119,0.079,west-northwest,3.1,Yes
2024/06/16,04:30,0.152,0.134,0.219,0.203,0.209,0.120,0.078,west-northwest,2.4,Yes
2024/06/16,04:40,0.150,0.135,0.219,0.202,0.208,0.118,0.078,-,CALM,Yes
2024/06/16,04:50,0.151,0.133,0.217,0.205,0.210,0.119,0.077,south-southeast,2.0,No
2024/06/16,05:00,0.151,0.134,0.219,0.201,0.208,0.117,0.078,south-southeast,0.7,No
2024/06/16,05:10,0.150,0.132,0.217,0.204,0.207,0.118,0.076,-,CALM,No
2024/06/16,05:20,0.151,0.134,0.216,0.202,0.209,0.118,0.077,northeast,0.8,Yes
2024/06/16,05:30,0.150,0.133,0.217,0.202,0.206,0.117,0.078,-,CALM,Yes
2024/06/16,05:40,0.151,0.134,0.218,0.204,0.209,0.118,0.077,north,0.7,Yes
2024/06/16,05:50,0.150,0.134,0.217,0.202,0.208,0.118,0.076,-,CALM,Yes
2024/06/16,06:00,0.150,0.133,0.218,0.204,0.209,0.118,0.077,-,CALM,Yes
2024/06/16,06:10,0.152,0.134,0.219,0.202,0.209,0.119,0.078,north-northeast,0.9,Yes
2024/06/16,06:20,0.151,0.135,0.217,0.204,0.209,0.119,0.078,north,2.1,Yes
2024/06/16,06:30,0.153,0.136,0.220,0.204,0.212,0.120,0.079,north-northwest,2.3,Yes
2024/06/16,06:40,0.152,0.135,0.218,0.205,0.210,0.121,0.080,north,2.5,Yes
2024/06/16,06:50,0.153,0.136,0.221,0.206,0.211,0.120,0.079,north-northwest,1.9,Yes
2024/06/16,07:00,0.153,0.135,0.218,0.204,0.210,0.120,0.080,north-northwest,1.3,Yes
2024/06/16,07:10,0.152,0.136,0.220,0.205,0.211,0.119,0.079,north,0.7,Yes
2024/06/16,07:20,0.152,0.136,0.219,0.202,0.210,0.120,0.079,north-northeast,0.7,No
2024/06/16,07:30,0.150,0.135,0.218,0.205,0.208,0.119,0.078,north-northeast,1.6,No
2024/06/16,07:40,0.152,0.135,0.218,0.203,0.211,0.119,0.078,north,1.6,No
2024/06/16,07:50,0.151,0.133,0.216,0.201,0.209,0.120,0.078,north,2.0,No
2024/06/16,08:00,0.150,0.134,0.217,0.204,0.207,0.118,0.077,north,1.5,No
2024/06/16,08:10,0.151,0.134,0.217,0.201,0.210,0.119,0.077,north,1.5,No
2024/06/16,08:20,0.151,0.132,0.215,0.200,0.209,0.119,0.077,north,1.5,No
2024/06/16,08:30,0.149,0.134,0.217,0.203,0.206,0.117,0.077,-,CALM,No
2024/06/16,08:40,0.150,0.133,0.217,0.202,0.208,0.118,0.077,-,CALM,No
2024/06/16,08:50,0.151,0.132,0.216,0.199,0.209,0.118,0.077,-,CALM,No
2024/06/16,09:00,0.149,0.132,0.214,0.199,0.208,0.118,0.076,-,CALM,No
2024/06/16,09:10,0.147,0.134,0.217,0.202,0.206,0.118,0.076,-,CALM,No
2024/06/16,09:20,0.149,0.132,0.217,0.202,0.205,0.119,0.077,-,CALM,No
2024/06/16,09:30,0.149,0.131,0.215,0.202,0.206,0.117,0.077,east-southeast,0.8,No
2024/06/16,09:40,0.149,0.132,0.215,0.200,0.205,0.118,0.076,southeast,1.6,No
2024/06/16,09:50,0.149,0.132,0.214,0.200,0.205,0.117,0.075,east-southeast,1.7,No
2024/06/16,10:00,0.148,0.133,0.213,0.199,0.205,0.117,0.076,southeast,1.6,No
2024/06/16,10:10,0.148,0.133,0.213,0.201,0.206,0.118,0.076,southeast,2.1,No
2024/06/16,10:20,0.148,0.133,0.214,0.200,0.208,0.117,0.076,southeast,2.2,No
2024/06/16,10:30,0.147,0.132,0.214,0.199,0.210,0.117,0.076,southeast,2.2,No
2024/06/16,10:40,0.150,0.132,0.217,0.202,0.209,0.117,0.077,southeast,2.2,No
2024/06/16,10:50,0.150,0.133,0.218,0.203,0.207,0.118,0.076,south-southeast,3.0,No
2024/06/16,11:00,0.149,0.133,0.217,0.203,0.207,0.118,0.076,southeast,3.4,No
2024/06/16,11:10,0.150,0.133,0.215,0.202,0.207,0.117,0.077,south-southeast,3.4,No
2024/06/16,11:20,0.149,0.133,0.215,0.201,0.208,0.117,0.075,south-southeast,4.0,No
2024/06/16,11:30,0.149,0.132,0.214,0.200,0.206,0.117,0.076,southeast,3.7,No
2024/06/16,11:40,0.149,0.132,0.214,0.202,0.206,0.118,0.076,south-southeast,3.3,No
2024/06/16,11:50,0.149,0.132,0.215,0.201,0.207,0.118,0.076,southeast,3.6,No
2024/06/16,12:00,0.149,0.132,0.214,0.200,0.208,0.118,0.076,south-southeast,3.8,No
2024/06/16,12:10,0.149,0.131,0.215,0.200,0.208,0.118,0.075,south-southeast,3.7,No
2024/06/16,12:20,0.148,0.132,0.215,0.201,0.207,0.117,0.076,southeast,4.6,No
2024/06/16,12:30,0.149,0.132,0.214,0.200,0.207,0.118,0.075,southeast,4.2,No
2024/06/16,12:40,0.149,0.132,0.215,0.200,0.207,0.118,0.076,southeast,4.8,No
2024/06/16,12:50,0.148,0.131,0.214,0.201,0.207,0.117,0.076,south-southeast,5.5,No
2024/06/16,13:00,0.149,0.132,0.214,0.200,0.206,0.117,0.076,south-southeast,5.9,No
2024/06/16,13:10,0.148,0.132,0.215,0.200,0.207,0.117,0.076,south-southeast,6.7,No
2024/06/16,13:20,0.149,0.132,0.215,0.200,0.207,0.117,0.075,south-southeast,6.0,No
2024/06/16,13:30,0.147,0.132,0.214,0.201,0.209,0.116,0.074,south,8.3,No
2024/06/16,13:40,0.148,0.133,0.216,0.200,0.208,0.116,0.075,south,9.3,No
2024/06/16,13:50,0.149,0.132,0.215,0.200,0.208,0.117,0.075,south-southeast,6.9,No
2024/06/16,14:00,0.149,0.132,0.216,0.202,0.208,0.117,0.075,south,8.2,No
2024/06/16,14:10,0.148,0.133,0.216,0.200,0.207,0.117,0.075,south,7.6,No
2024/06/16,14:20,0.148,0.131,0.217,0.201,0.208,0.117,0.075,south-southeast,8.3,No
2024/06/16,14:30,0.148,0.131,0.215,0.203,0.208,0.117,0.075,south-southeast,9.3,No
2024/06/16,14:40,0.148,0.132,0.215,0.203,0.209,0.117,0.075,south-southeast,9.2,No
2024/06/16,14:50,0.149,0.132,0.216,0.202,0.208,0.117,0.075,south-southeast,9.2,No
2024/06/16,15:00,0.149,0.132,0.216,0.201,0.208,0.117,0.075,south-southeast,10.1,No
2024/06/16,15:10,0.149,0.133,0.217,0.201,0.208,0.117,0.075,south,8.1,No
2024/06/16,15:20,0.149,0.131,0.216,0.200,0.208,0.117,0.075,south,5.7,No
2024/06/16,15:30,0.148,0.131,0.215,0.201,0.207,0.117,0.074,south,6.9,No
2024/06/16,15:40,0.148,0.131,0.216,0.201,0.207,0.116,0.075,south,7.0,No
2024/06/16,15:50,0.149,0.132,0.215,0.202,0.208,0.116,0.075,south,7.7,No
2024/06/16,16:00,0.148,0.132,0.215,0.202,0.206,0.116,0.076,south,7.0,No
2024/06/16,16:10,0.149,0.131,0.214,0.202,0.207,0.117,0.076,south,6.6,No
2024/06/16,16:20,0.148,0.131,0.216,0.200,0.207,0.117,0.075,south,7.2,No
2024/06/16,16:30,0.148,0.131,0.215,0.200,0.207,0.117,0.076,south,6.5,No
2024/06/16,16:40,0.149,0.133,0.214,0.201,0.208,0.117,0.075,south,5.9,No
2024/06/16,16:50,0.148,0.133,0.215,0.200,0.207,0.118,0.075,south-southwest,6.2,No
2024/06/16,17:00,0.148,0.132,0.214,0.201,0.207,0.118,0.075,south-southwest,5.8,No
2024/06/16,17:10,0.148,0.132,0.218,0.205,0.207,0.117,0.075,south-southwest,7.0,No
2024/06/16,17:20,0.147,0.133,0.218,0.202,0.206,0.118,0.075,south-southwest,5.0,No
2024/06/16,17:30,0.148,0.131,0.217,0.201,0.205,0.117,0.075,south-southwest,5.4,No
2024/06/16,17:40,0.150,0.133,0.215,0.201,0.207,0.118,0.076,south,5.7,No
2024/06/16,17:50,0.149,0.132,0.214,0.200,0.206,0.117,0.076,south-southwest,6.8,No
2024/06/16,18:00,0.148,0.131,0.218,0.203,0.206,0.117,0.075,south-southwest,5.9,No
2024/06/16,18:10,0.148,0.132,0.218,0.202,0.206,0.117,0.076,south-southwest,5.1,No
2024/06/16,18:20,0.148,0.134,0.216,0.201,0.210,0.118,0.076,south-southwest,2.5,No
2024/06/16,18:30,0.150,0.133,0.214,0.200,0.209,0.117,0.075,south-southwest,3.2,No
2024/06/16,18:40,0.149,0.131,0.217,0.204,0.208,0.117,0.076,southwest,3.4,No
2024/06/16,18:50,0.148,0.132,0.217,0.203,0.207,0.117,0.076,west-southwest,2.7,No
2024/06/16,19:00,0.149,0.133,0.216,0.203,0.207,0.118,0.075,west,2.5,No
2024/06/16,19:10,0.150,0.133,0.215,0.200,0.211,0.117,0.075,west-northwest,2.5,No
2024/06/16,19:20,0.150,0.131,0.218,0.202,0.208,0.116,0.076,northwest,2.7,No
2024/06/16,19:30,0.147,0.133,0.218,0.202,0.207,0.117,0.076,northwest,2.9,No
2024/06/16,19:40,0.150,0.133,0.216,0.203,0.206,0.118,0.076,west-northwest,4.6,No
2024/06/16,19:50,0.150,0.132,0.216,0.201,0.209,0.116,0.076,northwest,6.8,No
2024/06/16,20:00,0.150,0.132,0.218,0.203,0.209,0.117,0.076,west-northwest,5.3,No
2024/06/16,20:10,0.148,0.133,0.217,0.203,0.206,0.117,0.076,west-northwest,3.9,No
2024/06/16,20:20,0.149,0.132,0.215,0.201,0.205,0.116,0.075,northwest,1.8,No
2024/06/16,20:30,0.150,0.131,0.218,0.202,0.210,0.116,0.076,north-northeast,1.4,No
2024/06/16,20:40,0.149,0.133,0.218,0.204,0.210,0.117,0.076,north-northwest,2.7,No
2024/06/16,20:50,0.148,0.133,0.216,0.202,0.208,0.118,0.075,northwest,2.3,No
2024/06/16,21:00,0.150,0.133,0.216,0.200,0.205,0.117,0.075,north-northwest,2.3,No
2024/06/16,21:10,0.150,0.133,0.217,0.203,0.208,0.118,0.076,northwest,1.1,No
2024/06/16,21:20,0.149,0.133,0.216,0.204,0.209,0.117,0.076,north-northwest,1.2,No
2024/06/16,21:30,0.148,0.132,0.214,0.200,0.208,0.117,0.076,north-northeast,1.5,No
2024/06/16,21:40,0.150,0.131,0.218,0.202,0.207,0.117,0.076,north-northwest,2.7,No
2024/06/16,21:50,0.149,0.133,0.216,0.203,0.208,0.118,0.076,northwest,2.1,No
2024/06/16,22:00,0.148,0.133,0.216,0.201,0.209,0.117,0.076,northwest,1.3,No
2024/06/16,22:10,0.151,0.131,0.217,0.201,0.205,0.116,0.075,-,CALM,No
2024/06/16,22:20,0.149,0.133,0.217,0.204,0.209,0.118,0.075,-,CALM,No
2024/06/16,22:30,0.148,0.133,0.215,0.202,0.209,0.117,0.075,north-northwest,1.1,No
2024/06/16,22:40,0.150,0.133,0.219,0.200,0.207,0.116,0.076,north,2.4,No
2024/06/16,22:50,0.149,0.133,0.215,0.203,0.209,0.117,0.075,north-northeast,2.2,No
2024/06/16,23:00,0.149,0.132,0.216,0.202,0.209,0.117,0.076,north,2.1,No
2024/06/16,23:10,0.150,0.133,0.218,0.201,0.207,0.117,0.075,north-northeast,1.6,No
2024/06/16,23:20,0.149,0.132,0.216,0.203,0.208,0.117,0.076,north-northeast,2.5,No
2024/06/16,23:30,0.149,0.132,0.217,0.201,0.209,0.117,0.076,north,1.6,No
2024/06/16,23:40,0.150,0.133,0.216,0.201,0.206,0.116,0.076,north,1.6,No
2024/06/16,23:50,0.150,0.133,0.217,0.204,0.209,0.117,0.075,north,2.3,No
